Weather in Samut Prakan

Thailand     13°37′19″N   100°36′05″E
temp.,
°C
wind,
m/s
gust,
m/s
humid.,
%
clouds,
%
prec.,
mm/h
press.,
hPa
HPBL,
m
16 september, thu
thu1601:00+27sse3381100 3.9 1009204
04:00+27e1182100 1.0 100759
07:00+26s0286100 5.3 100991
10:00+28s4477100 0.4 1010623
13:00+29ssw4573100 0.5 1008699
16:00+28sse5574100 0.0 1007587
19:00+28s5778100 0.1 1008432
22:00+28s5680100 3.4 1010320
17 september, fri
fri1701:00+28ssw4679100 5.4 1009375
04:00+27w2281100 0.3 1008263
07:00+26nnw2282100 0.7 1010168
10:00+28nw117247 0.1 1011514
13:00+29s327098 0.1 1009776
16:00+29sse437331 0.0 1007531
19:00+28s5676100 0.1 1008365
22:00+28s5677100 0.0 1010412
18 september, sat
sat1801:00+28s457999 0.0 1009388
04:00+28sse348170 0.0 1008318
07:00+28sse118018 0.1 1010307
10:00+29s217552 0.0 1011704
13:00+29s427615 0.3 1009515
16:00+30s32717 0.1 1006527
19:00+29sse34777 0.1 1008176
22:00+28s5681100 0.6 1010254
19 september, sun
sun1901:00+28ssw4481100 1.3 1009218
04:00+28sw2280100 3.3 1008118
07:00+28nw228348 3.6 1009160
10:00+29w337692 1.6 1010438
13:00+31ssw2268100 3.4 1008659
16:00+30se4368100 0.4 1006462
19:00+28sse4580100 2.5 1007208
22:00+28s458199 1.6 1009212
20 september, mon
mon2001:00+28ssw3376100 5.1 1008180
04:00+27w3481100 0.8 1007222
07:00+27wnw3484100 1.7 1008183
10:00+28w237999 3.4 1010210
13:00+27wsw2282100 6.1 1008297
16:00+27wsw4479100 0.5 1006701
19:00+27sw3382100 0.5 1008275
22:00+27wsw1281100 0.0 1009214